This is the latest recevied weather packets stored in our database for station/object K9JWM. If no packets are shown the sender has not sent any weather packets the latest 1 day(s).
| Time | Temp. | Humidity | Pressure | Rain* | Wind** | Luminosity | Snow |
|---|---|---|---|---|---|---|---|
| 1778014029 | 5° C | 54% | 1009.6 hPa | 0 mm | 4.47 m/s, 260° | - | - |
| 1778013130 | 5.56° C | 54% | 1009.5 hPa | 0 mm | 3.13 m/s, 281° | - | - |
| 1778012229 | 4.44° C | 54% | 1009.6 hPa | 0 mm | 3.58 m/s, 256° | - | - |
| 1778011329 | 5° C | 53% | 1009.6 hPa | 0 mm | 2.24 m/s, 266° | - | - |
| 1778010429 | 4.44° C | 56% | 1009.6 hPa | 0 mm | 3.13 m/s, 277° | - | - |
| 1778009529 | 4.44° C | 57% | 1009.6 hPa | 0 mm | 4.02 m/s, 259° | - | - |
| 1778008630 | 3.89° C | 54% | 1009.5 hPa | 0 mm | 4.02 m/s, 262° | - | - |
| 1778007730 | 3.89° C | 57% | 1009.6 hPa | 0 mm | 2.68 m/s, 260° | - | - |
| 1778006830 | 3.89° C | 55% | 1009.5 hPa | 0 mm | 3.13 m/s, 271° | - | - |
| 1778005929 | 3.89° C | 58% | 1009.4 hPa | 0 mm | 3.58 m/s, 273° | - | - |
| 1778005030 | 3.33° C | 55% | 1009.4 hPa | 0 mm | 2.68 m/s, 276° | - | - |
| 1778004130 | 2.78° C | 58% | 1009.2 hPa | 0 mm | 4.47 m/s, 263° | - | - |
| 1778003230 | 2.78° C | 62% | 1009.2 hPa | 0 mm | 3.13 m/s, 263° | - | - |
| 1778002329 | 2.78° C | 63% | 1009.3 hPa | 0 mm | 3.58 m/s, 248° | - | - |
| 1778001429 | 2.22° C | 61% | 1009.2 hPa | 0 mm | 2.68 m/s, 253° | - | - |
| 1778000530 | 2.22° C | 62% | 1009.2 hPa | 0 mm | 3.58 m/s, 253° | - | - |
| 1777999628 | 2.22° C | 61% | 1008.8 hPa | 0 mm | 4.47 m/s, 248° | - | - |
| 1777998730 | 1.67° C | 60% | 1008.8 hPa | 0 mm | 2.68 m/s, 277° | - | - |
| 1777997830 | 2.22° C | 62% | 1008.6 hPa | 0 mm | 4.47 m/s, 257° | - | - |
| 1777996930 | 2.22° C | 62% | 1008.5 hPa | 0 mm | 2.68 m/s, 273° | - | - |
| 1777996030 | 2.22° C | 61% | 1008.2 hPa | 0 mm | 1.34 m/s, 285° | - | - |
| 1777995128 | 2.22° C | 61% | 1008.1 hPa | 0 mm | 1.34 m/s, 272° | - | - |
| 1777994230 | 2.78° C | 59% | 1007.7 hPa | 0 mm | 2.68 m/s, 317° | - | - |
| 1777993329 | 2.78° C | 62% | 1007.6 hPa | 0 mm | 2.68 m/s, 264° | - | - |
| 1777992429 | 2.78° C | 62% | 1007.4 hPa | 0 mm | 3.58 m/s, 268° | - | - |
* Rain latest hour (hover to see other rain measurements)
** Current wind speed in m/s (hover to see current wind gust speed)